Date String (YYYY-MM-DD hh:mm:ss) UTC,Instrument flags,Ambient pressure (hPa),Sample flow (lpm),Bypass flow (lpm),Sample temperature (°C),Ambient temperature (°C),ASC tube jacket temperature (°C),LED temperature (°C),Box temperature (°C),Sample RH (%),Span deviation,Mass concentration (μg/m³),Mass concentration (μg/m³),Mass concentration (μg/m³)
DateTimeUTC,F1_M11,P_M11,Q1_M11,Q2_M11,T1_M11,T2_M11,T3_M11,T4_M11,T5_M11,U1_M11,ZSPAN_M11,X0_M11,X2_M11,X1_M11
2022-06-30 17:00:00,,0830.1,5.00,0.00,29.4,28.2,00.0,38.1,31.4,29.4,0000.0,0010.07,0004.00,0003.34
2022-06-30 17:01:00,,0830.2,5.00,0.00,29.4,28.3,00.0,38.1,31.4,30.1,0000.0,0010.59,0003.98,0003.35
2022-06-30 17:02:00,,0830.2,5.00,0.00,29.4,28.4,00.0,38.2,31.4,28.7,0000.0,0010.48,0003.99,0003.38
2022-06-30 17:03:00,,0830.2,5.00,0.00,29.5,28.5,00.0,38.2,31.5,28.9,0000.0,0010.56,0003.99,0003.39
2022-06-30 17:04:00,,0830.3,5.00,0.00,29.5,28.6,00.0,38.2,31.5,28.9,0000.0,0010.70,0004.00,0003.39
2022-06-30 17:05:00,,0830.2,5.00,0.00,29.5,28.2,00.0,38.2,31.5,29.4,0000.0,0009.84,0004.01,0003.39
2022-06-30 17:06:00,,0830.2,5.00,0.00,29.5,27.4,00.0,38.1,31.3,29.5,0000.0,0010.20,0004.02,0003.40
2022-06-30 17:07:00,,0830.3,5.00,0.00,29.4,27.0,00.0,38.1,31.2,29.8,0000.0,0010.73,0004.00,0003.39
2022-06-30 17:08:00,,0830.2,4.99,0.00,29.4,27.0,00.0,38.1,31.1,28.4,0000.0,0010.80,0004.00,0003.39
2022-06-30 17:09:00,,0830.3,4.99,0.00,29.3,27.1,00.0,38.1,31.1,28.4,0000.0,0010.80,0004.02,0003.39
2022-06-30 17:10:00,,0830.3,5.02,0.00,29.3,27.2,00.0,38.1,31.1,27.5,0000.0,0010.71,0003.97,0003.38
2022-06-30 17:11:00,,0830.4,4.99,0.00,29.3,27.4,00.0,38.1,31.1,28.6,0000.0,0010.29,0003.93,0003.36
2022-06-30 17:12:00,,0830.3,5.01,0.00,29.3,27.6,00.0,38.1,31.2,28.5,0000.0,0009.79,0003.92,0003.35
2022-06-30 17:13:00,,0830.3,4.99,0.00,29.3,27.8,00.0,38.1,31.2,27.4,0000.0,0010.22,0003.90,0003.32
2022-06-30 17:14:00,,0830.3,5.00,0.00,29.3,27.9,00.0,38.1,31.2,27.6,0000.0,0010.35,0003.86,0003.29
2022-06-30 17:15:00,,0830.3,4.99,0.00,29.3,28.1,00.0,38.1,31.3,28.2,0000.0,0010.86,0003.85,0003.28
2022-06-30 17:16:00,,0830.4,5.00,0.00,29.3,28.2,00.0,38.1,31.3,30.2,0000.0,0011.23,0003.84,0003.28
2022-06-30 17:17:00,,0830.3,4.99,0.00,29.4,28.3,00.0,38.1,31.4,28.5,0000.0,0010.50,0003.79,0003.25
2022-06-30 17:18:00,,0830.3,5.00,0.00,29.4,28.4,00.0,38.1,31.4,27.5,0000.0,0009.75,0003.73,0003.20
2022-06-30 17:19:00,,0830.4,5.01,0.00,29.5,28.5,00.0,38.1,31.5,26.5,0000.0,0009.77,0003.66,0003.17
2022-06-30 17:20:00,,0830.3,5.00,0.00,29.5,28.6,00.0,38.2,31.5,25.3,0000.0,0010.21,0003.56,0003.12
2022-06-30 17:21:00,,0830.3,4.99,0.00,29.5,28.1,00.0,38.1,31.4,25.0,0000.0,0010.59,0003.49,0003.03
2022-06-30 17:22:00,,0830.4,5.00,0.00,29.5,27.3,00.0,38.1,31.3,24.1,0000.0,0010.32,0003.41,0002.89
2022-06-30 17:23:00,,0830.3,5.00,0.00,29.4,26.9,00.0,38.1,31.2,23.4,0000.0,0009.80,0003.27,0002.71
2022-06-30 17:24:00,,0830.2,5.00,0.00,29.3,26.9,00.0,38.1,31.1,23.4,0000.0,0009.18,0003.17,0002.55
2022-06-30 17:25:00,,0830.2,5.01,0.00,29.3,27.0,00.0,38.0,31.0,23.9,0000.0,0008.52,0003.01,0002.41
2022-06-30 17:26:00,,0830.2,5.00,0.00,29.2,27.2,00.0,38.0,31.0,23.9,0000.0,0007.12,0002.75,0002.21
2022-06-30 17:27:00,,0830.3,4.99,0.00,29.2,27.4,00.0,38.0,31.1,23.9,0000.0,0006.17,0002.46,0002.01
2022-06-30 17:28:00,,0830.3,5.00,0.00,29.2,27.5,00.0,38.0,31.1,24.2,0000.0,0005.95,0002.27,0001.83
2022-06-30 17:29:00,,0830.3,5.00,0.00,29.2,27.7,00.0,38.0,31.2,24.5,0000.0,0005.91,0002.13,0001.70
2022-06-30 17:30:00,,0830.2,4.99,0.00,29.2,27.8,00.0,38.0,31.2,24.6,0000.0,0005.53,0001.98,0001.54
2022-06-30 17:31:00,,0830.2,5.00,0.00,29.3,28.0,00.0,38.0,31.2,24.6,0000.0,0004.30,0001.84,0001.40
2022-06-30 17:32:00,,0830.2,5.00,0.00,29.3,28.1,00.0,38.1,31.3,24.9,0000.0,0003.23,0001.69,0001.27
2022-06-30 17:33:00,,0830.1,5.00,0.00,29.3,28.2,00.0,38.1,31.3,25.1,0000.0,0003.16,0001.64,0001.19
2022-06-30 17:34:00,,0830.1,5.00,0.00,29.3,28.3,00.0,38.1,31.3,25.2,0000.0,0003.32,0001.67,0001.16
2022-06-30 17:35:00,,0830.1,5.01,0.00,29.4,28.4,00.0,38.1,31.4,25.3,0000.0,0003.79,0001.66,0001.13
2022-06-30 17:36:00,,0830.1,4.98,0.00,29.4,28.4,00.0,38.1,31.4,25.0,0000.0,0004.02,0001.66,0001.09
2022-06-30 17:37:00,,0830.0,5.01,0.00,29.4,28.5,00.0,38.1,31.4,25.2,0000.0,0003.95,0001.62,0001.07
2022-06-30 17:38:00,,0829.8,5.00,0.00,29.5,28.1,00.0,38.1,31.4,25.0,0000.0,0003.97,0001.59,0001.05
2022-06-30 17:39:00,,0829.9,5.00,0.00,29.4,27.2,00.0,38.1,31.2,25.2,0000.0,0005.24,0001.55,0001.02
2022-06-30 17:40:00,,0829.9,5.01,0.00,29.4,26.8,00.0,38.0,31.1,24.8,0000.0,0005.06,0001.53,0001.00
2022-06-30 17:41:00,,0829.8,5.00,0.00,29.3,26.7,00.0,38.0,31.0,25.0,0000.0,0004.85,0001.51,0000.98
2022-06-30 17:42:00,,0829.8,5.00,0.00,29.2,26.8,00.0,38.0,31.0,25.5,0000.0,0004.93,0001.53,0000.99
2022-06-30 17:43:00,,0829.8,5.00,0.00,29.2,27.0,00.0,38.0,31.0,26.5,0000.0,0005.44,0001.60,0001.01
2022-06-30 17:44:00,,0829.9,4.99,0.00,29.1,27.2,00.0,38.0,31.0,26.4,0000.0,0005.58,0001.65,0001.03
2022-06-30 17:45:00,,0829.9,5.00,0.00,29.1,27.4,00.0,38.0,31.0,26.2,0000.0,0005.57,0001.65,0001.04
2022-06-30 17:46:00,,0830.0,5.00,0.00,29.1,27.5,00.0,38.0,31.0,25.1,0000.0,0004.96,0001.61,0001.05
2022-06-30 17:47:00,,0830.0,5.00,0.00,29.2,27.7,00.0,38.0,31.1,25.1,0000.0,0004.68,0001.58,0001.04
2022-06-30 17:48:00,,0830.1,4.99,0.00,29.2,27.8,00.0,38.0,31.1,24.9,0000.0,0004.77,0001.59,0001.04
2022-06-30 17:49:00,,0830.1,5.01,0.00,29.2,27.9,00.0,38.0,31.2,26.0,0000.0,0004.69,0001.58,0001.04
2022-06-30 17:50:00,,0830.2,4.99,0.00,29.2,28.0,00.0,38.0,31.2,26.6,0000.0,0003.49,0001.63,0001.04
2022-06-30 17:51:00,,0830.2,5.01,0.00,29.3,28.1,00.0,38.0,31.2,25.9,0000.0,0003.47,0001.59,0001.03
2022-06-30 17:52:00,,0830.2,5.00,0.00,29.3,28.2,00.0,38.0,31.3,25.3,0000.0,0003.37,0001.54,0001.01
2022-06-30 17:53:00,,0830.2,5.00,0.00,29.3,28.3,00.0,38.0,31.3,25.5,0000.0,0003.10,0001.45,0000.98
2022-06-30 17:54:00,,0830.2,5.00,0.00,29.3,28.4,00.0,38.0,31.3,25.3,0000.0,0002.43,0001.35,0000.96
2022-06-30 17:55:00,,0830.3,5.00,0.00,29.4,28.4,00.0,38.1,31.4,24.2,0000.0,0002.27,0001.29,0000.94
2022-06-30 17:56:00,,0830.2,5.00,0.00,29.4,28.5,00.0,38.1,31.4,23.6,0000.0,0002.07,0001.20,0000.90
2022-06-30 17:57:00,,0830.2,5.00,0.00,29.4,28.2,00.0,38.1,31.4,24.1,0000.0,0002.00,0001.16,0000.88
2022-06-30 17:58:00,,0830.2,5.01,0.00,29.4,27.6,00.0,38.0,31.3,23.6,0000.0,0002.20,0001.16,0000.87
2022-06-30 17:59:00,,0830.3,4.99,0.00,29.4,27.3,00.0,38.0,31.2,24.1,0000.0,0002.16,0001.16,0000.86
